This is the latest recevied weather packets stored in our database for station/object N9PBY-2. If no packets are shown the sender has not sent any weather packets the latest 10 day(s).
| Time | Temp. | Humidity | Pressure | Rain* | Wind** | Luminosity | Snow |
|---|---|---|---|---|---|---|---|
| 1778055006 | 1.11° C | 60% | 1010.8 hPa | 0 mm | - | - | - |
| 1778054407 | 1.11° C | 60% | 1010.8 hPa | 0 mm | - | - | - |
| 1778053807 | 1.11° C | 60% | 1010.7 hPa | 0 mm | - | - | - |
| 1778053207 | 1.11° C | 59% | 1010.8 hPa | 0 mm | - | - | - |
| 1778052607 | 1.67° C | 59% | 1010.8 hPa | 0 mm | - | - | - |
| 1778052007 | 1.67° C | 58% | 1010.7 hPa | 0 mm | - | - | - |
| 1778051407 | 2.22° C | 57% | 1010.9 hPa | 0 mm | - | - | - |
| 1778050807 | 2.22° C | 57% | 1010.8 hPa | 0 mm | - | - | - |
| 1778050206 | 2.22° C | 55% | 1011 hPa | 0 mm | - | - | - |
| 1778049606 | 2.78° C | 52% | 1010.9 hPa | 0 mm | - | - | - |
| 1778049006 | 2.78° C | 52% | 1010.8 hPa | 0 mm | - | - | - |
| 1778048407 | 3.33° C | 51% | 1010.7 hPa | 0 mm | - | - | - |
| 1778047807 | 3.89° C | 50% | 1010.7 hPa | 0 mm | - | - | - |
| 1778047207 | 3.89° C | 48% | 1010.8 hPa | 0 mm | - | - | - |
| 1778046606 | 4.44° C | 45% | 1011 hPa | 0 mm | - | - | - |
| 1778046007 | 4.44° C | 44% | 1011.1 hPa | 0 mm | - | - | - |
| 1778045407 | 5° C | 44% | 1011.1 hPa | 0 mm | - | - | - |
| 1778044807 | 5.56° C | 43% | 1011.1 hPa | 0 mm | - | - | - |
| 1778044207 | 5.56° C | 42% | 1011 hPa | 0 mm | - | - | - |
| 1778043613 | 6.11° C | 41% | 1010.9 hPa | 0 mm | - | - | - |
| 1778043008 | 6.67° C | 40% | 1010.9 hPa | 0 mm | - | - | - |
| 1778042406 | 6.67° C | 40% | 1010.9 hPa | 0 mm | - | - | - |
| 1778041807 | 6.67° C | 40% | 1010.7 hPa | 0 mm | - | - | - |
| 1778041207 | 6.67° C | 40% | 1010.6 hPa | 0 mm | - | - | - |
| 1778040606 | 6.67° C | 39% | 1010.6 hPa | 0 mm | - | - | - |
* Rain latest hour (hover to see other rain measurements)
** Current wind speed in m/s (hover to see current wind gust speed)